AirNav   Air Wisconsin Up To $57,000 Bonus
 
 1573 users online  

2MO3 Independence Regional Health Center Heliport
Independence, Missouri, USA

GOING TO INDEPENDENCE?


FAA INFORMATION EFFECTIVE 07 OCTOBER 2021

Location

FAA Identifier: 2MO3
Lat/Long: 39-05-38.9100N 094-26-06.4500W
39-05.648500N 094-26.107500W
39.0941417,-94.4351250
(estimated)
Elevation: 952 ft. / 290 m (estimated)
Variation: 05E (1990)
Time zone: UTC -5 (UTC -6 during Standard Time)
Zip code: 64050

Heliport Operations

Heliport use: Private use, MEDICAL USE.
Activation date: 03/1993
Control tower: no
ARTCC: KANSAS CITY CENTER
FSS: COLUMBIA FLIGHT SERVICE STATION
Attendance: CONTINUOUS
Wind indicator: yes
Segmented circle: no

Heliport Communications

WX ASOS at MKC (8 nm W): PHONE 816-329-2843
WX ASOS at LXT (9 nm S): 124.175 (816-347-9807)
WX AWOS-3T at GPH (15 nm N): 120.275 (816-407-3399)
WX ASOS at MCI (18 nm NW): PHONE 816-329-2808

Nearby radio navigation aids

VOR radial/distance  VOR name  Freq  Var
ANXr263/14.3NAPOLEON VORTAC114.0007E
MCIr124/18.1KANSAS CITY VORTAC113.2505E

Heliport Services

Runway Information

Helipad H1

Dimensions: 30 x 30 ft. / 9 x 9 m
Surface: asphalt
Latitude: 39-05.648500N
Longitude: 094-26.107500W
Elevation: 952.0 ft.
Traffic pattern: leftleft

Heliport Ownership and Management from official FAA records

Ownership: Privately-owned
Owner: INDEPENDENCE REGIONAL HEALTH
1509 W. TRUMAN ROAD
INDEPENDENCE, MO 64050
Phone 816-836-8100
Manager: EDDIE JORGENSON
1509 W. TRUMAN ROAD
INDEPENDENCE, MO 64050
Phone 816-836-8100

Additional Remarks

OWNER DESIRES HELIPORT NOT BE CHARTED.
FOR CD CTC KANSAS CITY APCH AT 816-329-2710.

Instrument Procedures

There are no published instrument procedures at 2MO3.

Some nearby airports with instrument procedures:

KMKC - Charles B Wheeler Downtown Airport (8 nm W)
KLXT - Lee's Summit Municipal Airport (9 nm S)
3GV - East Kansas City Airport (11 nm SE)
KGPH - Midwest National Air Center Airport (15 nm N)
KMCI - Kansas City International Airport (18 nm NW)
3EX - Excelsior Springs Memorial Airport (18 nm NE)
 
Loc | Ops | Rwys | IFR | FBO | Links
Com | Nav | Svcs | Stats | Notes
Area around 2MO3 (Independence Regional Health Center Heliport)
 
Road maps at: MapQuest Bing Google
 
Aerial photo
No photo
 
Sectional chart

 
Airport distance calculator
Flying to Independence Regional Health Center Heliport? Find the distance to fly.

From to 2MO3

Sunrise and sunset
Times for 21-Oct-2021
 Local
(UTC-5)
 Zulu
(UTC)
Morning civil twilight07:0712:07
Sunrise07:3512:35
Sunset18:3023:30
Evening civil twilight18:5723:57

Current date and time
Zulu (UTC)  21-Oct-2021 15:54:38
Local (UTC-5)  21-Oct-2021 10:54:38
 
METAR
KMKC 
8nm W 
211454Z 30011G16KT 10SM FEW023 09/03 A3017 RMK AO2 SLP218 T00940033 51017
KLXT 
8nm SE 
211453Z AUTO 31014G21KT 10SM FEW022 09/03 A3017 RMK AO2 SLP219 T00890033 51018
KGPH 
15nm N 
211535Z AUTO 29010G14KT 10SM BKN023 08/02 A3019 RMK AO2
KMCI 
19nm NW 
211453Z 30012KT 10SM FEW020 SCT250 08/03 A3017 RMK AO2 SLP216 T00830028 52015
TAF
KMKC 
8nm W 
211120Z 2112/2212 30012G20KT P6SM OVC025 FM211900 30012KT P6SM SCT200 FM220000 VRB04KT P6SM SKC
KMCI 
19nm NW 
211120Z 2112/2212 30012G20KT P6SM OVC025 FM211900 30012KT P6SM SCT200 FM220000 VRB04KT P6SM SKC
NOTAMs
Click for the latest NOTAMs
NOTAMs are issued by the DoD/FAA and will open in a separate window not controlled by AirNav.

 

 
 

Would you like to see your business listed on this page?

 If your business provides an interesting product or service to pilots, flight crews, aircraft, or users of the Independence Regional Health Center Heliport, you should consider listing it here.  To start the listing process, click on the button below
 
Add a business
 

Other Pages about Independence Regional Health Center Heliport

Update a link
 
Copyright © AirNav, LLC. All rights reserved. Privacy Policy  Contact